TimeEST,TemperatureF,Dew PointF,Humidity,Sea Level PressureIn,VisibilityMPH,Wind Direction,Wind SpeedMPH,Gust SpeedMPH,PrecipitationIn,Events,Conditions,WindDirDegrees,DateUTC
12:54 AM,24.1,21.0,88,30.54,-9999.0,North,-9999.0,-,N/A,,Unknown,0,2011-12-04 05:54:00
1:54 AM,24.1,21.0,88,30.54,-9999.0,North,-9999.0,-,N/A,,Unknown,0,2011-12-04 06:54:00
2:54 AM,25.0,21.9,88,30.53,-9999.0,North,-9999.0,-,N/A,,Unknown,0,2011-12-04 07:54:00
3:54 AM,25.0,21.0,85,30.52,-9999.0,North,-9999.0,-,N/A,,Unknown,0,2011-12-04 08:54:00
4:54 AM,24.1,21.0,88,30.53,-9999.0,North,-9999.0,-,N/A,,Unknown,0,2011-12-04 09:54:00
5:54 AM,23.0,19.9,88,30.53,-9999.0,North,-9999.0,-,N/A,,Unknown,0,2011-12-04 10:54:00
6:54 AM,23.0,19.9,88,30.51,-9999.0,North,-9999.0,-,N/A,,Unknown,0,2011-12-04 11:54:00
7:54 AM,25.0,21.9,88,30.50,-9999.0,North,-9999.0,-,N/A,,Unknown,0,2011-12-04 12:54:00
8:54 AM,33.1,27.0,78,30.47,-9999.0,North,-9999.0,-,N/A,,Unknown,0,2011-12-04 13:54:00
9:54 AM,37.9,28.9,70,30.46,-9999.0,North,-9999.0,-,N/A,,Unknown,0,2011-12-04 14:54:00
10:54 AM,39.9,28.9,65,30.43,-9999.0,North,-9999.0,-,N/A,,Unknown,0,2011-12-04 15:54:00
11:54 AM,43.0,28.0,56,30.39,-9999.0,North,-9999.0,-,N/A,,Unknown,0,2011-12-04 16:54:00
12:54 PM,44.1,28.9,55,30.37,-9999.0,North,-9999.0,-,N/A,,Unknown,0,2011-12-04 17:54:00
1:54 PM,46.0,30.0,54,30.33,-9999.0,North,-9999.0,-,N/A,,Unknown,0,2011-12-04 18:54:00
2:54 PM,46.9,30.0,52,30.32,-9999.0,North,-9999.0,-,N/A,,Unknown,0,2011-12-04 19:54:00
3:54 PM,46.0,30.0,54,30.30,-9999.0,North,-9999.0,-,N/A,,Unknown,0,2011-12-04 20:54:00
4:54 PM,44.1,30.0,58,30.29,-9999.0,North,-9999.0,-,N/A,,Unknown,0,2011-12-04 21:54:00
5:54 PM,44.1,30.9,60,30.30,-9999.0,North,-9999.0,-,N/A,,Unknown,0,2011-12-04 22:54:00
6:54 PM,44.1,30.9,60,30.32,-9999.0,North,-9999.0,-,N/A,,Unknown,0,2011-12-04 23:54:00
7:54 PM,43.0,32.0,65,30.32,-9999.0,North,-9999.0,-,N/A,,Unknown,0,2011-12-05 00:54:00
8:54 PM,43.0,33.1,68,30.30,-9999.0,North,-9999.0,-,N/A,,Unknown,0,2011-12-05 01:54:00
9:54 PM,43.0,34.0,71,30.31,-9999.0,North,-9999.0,-,N/A,,Unknown,0,2011-12-05 02:54:00
10:54 PM,43.0,34.0,71,30.31,-9999.0,North,-9999.0,-,N/A,,Unknown,0,2011-12-05 03:54:00
11:54 PM,43.0,35.1,74,30.30,-9999.0,North,-9999.0,-,N/A,,Unknown,0,2011-12-05 04:54:00